Temp
8 8 8 8 8 8 8 8 8 8 8 8 8 8 9 11 14 18 22 25 25 24 24 26 25 27 28 30 31 33 31 32 34 34 36 38 36 38 37 36 37 37 37 37 36
7 7 8 8 8 8 7 7 8 8 8 8 8 9 11 11 13 20 23 23 23 23 23 27 28 29 30 30 32 31 31 32 35 36 36 37 37 37 36 35 35 36 37 37 36
7 7 7 7 7 7 7 7 7 7 8 8 8 9 11 11 20 26 22 22 22 22 23 27 29 30 30 31 32 32 31 33 35 36 36 36 37 37 36 35 36 36 36 37 36
7 7 7 7 7 7 7 7 7 7 8 8 8 8 11 13 24 22 19 20 20 20 22 24 28 29 30 30 32 32 33 34 35 35 35 35 36 36 36 35 36 36 36 36 35
7 7 7 7 7 7 7 7 7 7 7 7 7 8 11 19 22 21 21 21 21 24 23 26 27 29 30 31 32 32 33 34 35 35 35 35 34 35 35 36 36 36 36 35 35
7 7 7 7 7 7 7 7 8 9 9 7 8 8 12 16 21 22 22 21 22 24 26 27 29 31 31 32 32 33 34 34 34 34 35 34 34 35 35 36 36 36 35 35 36
7 7 7 7 7 7 7 8 9 10 9 7 8 9 14 17 19 20 20 21 22 23 26 27 28 30 31 31 33 33 32 33 34 34 34 34 33 33 35 35 35 35 35 35 36
7 7 7 7 7 7 7 8 9 10 10 8 8 11 13 17 19 20 20 21 21 21 22 24 27 29 30 31 31 31 31 30 32 33 34 33 31 33 35 35 35 35 36 36 35
7 7 7 7 7 8 9 10 11 10 10 9 10 13 16 18 18 19 19 21 22 22 22 23 25 27 28 28 29 30 29 30 31 33 33 33 32 33 35 35 34 35 35 35 35
7 7 7 7 7 8 9 11 12 10 11 13 14 16 18 20 21 20 21 20 22 23 24 23 24 25 27 28 27 28 29 30 30 33 33 33 33 34 35 34 34 34 35 34 34
6 6 7 7 7 8 9 14 17 17 16 18 19 18 20 21 21 21 21 21 21 22 22 24 23 24 26 28 29 30 30 30 32 33 32 32 33 34 34 34 34 34 35 34 33
7 7 7 7 8 9 9 16 16 14 13 17 18 19 19 20 20 21 20 21 21 20 22 24 23 26 27 29 29 29 29 30 31 33 33 32 32 33 34 33 33 34 34 34 34
7 7 7 6 9 9 14 15 13 14 13 16 19 20 21 21 19 20 21 21 20 21 22 23 25 26 27 28 28 29 28 29 30 32 32 32 31 32 33 33 33 33 33 34 34
7 7 7 6 10 13 15 13 13 14 13 18 19 20 20 20 19 21 21 21 21 21 23 23 25 26 26 27 29 28 30 30 30 29 29 31 30 31 32 32 33 33 33 34 34
7 6 6 6 9 13 13 13 13 13 13 20 19 20 21 20 21 21 22 21 20 21 22 22 24 25 26 27 29 29 31 30 30 29 29 29 29 30 32 31 32 33 33 34 34
7 5 8 12 11 12 13 13 13 11 14 19 19 15 19 20 21 21 21 21 21 21 22 23 26 26 26 28 29 30 30 30 30 29 27 28 29 30 31 32 33 33 34 34 34
7 8 9 10 13 12 12 13 10 12 18 17 16 17 16 18 20 20 20 18 20 19 19 21 23 26 27 27 28 29 28 27 27 27 27 30 29 30 32 33 33 33 34 34 35
8 9 11 11 10 11 12 9 11 15 16 17 17 17 17 19 19 17 19 19 20 20 17 21 20 23 26 26 27 28 28 28 26 27 28 31 29 31 33 34 34 34 34 34 32
10 12 12 12 10 11 10 11 11 15 16 15 15 14 16 19 19 19 19 19 18 17 13 20 22 25 26 27 28 28 29 30 29 31 31 33 33 33 33 33 33 33 33 32 32
10 14 14 11 11 11 10 12 14 16 15 15 13 13 14 16 15 17 18 16 16 16 13 16 17 24 26 27 27 28 30 28 30 27 29 31 32 32 33 33 34 33 33 33 31
10 15 13 12 11 12 11 13 15 16 16 13 13 14 15 15 16 17 17 18 16 16 16 16 14 20 25 26 26 27 29 29 29 30 30 29 31 34 33 33 34 34 34 33 31
14 15 13 12 10 12 11 14 15 16 16 15 14 14 14 14 14 16 17 17 16 16 16 19 17 17 22 27 28 29 29 29 30 28 31 31 31 33 33 34 34 34 34 32 31
15 16 13 13 10 11 13 15 16 16 15 15 13 15 15 14 12 16 15 11 13 13 13 14 17 18 18 23 27 27 29 30 29 30 29 30 31 33 33 34 35 34 33 31 31
15 12 15 15 13 11 11 13 14 16 15 16 15 15 10 14 16 14 13 13 11 11 13 11 15 18 16 22 27 27 29 30 29 29 30 30 32 32 32 33 33 32 31 31 31
14 13 12 11 12 10 11 12 13 13 14 15 15 15 14 13 15 12 13 14 13 12 11 10 14 18 19 16 21 27 28 29 29 30 30 31 31 32 33 33 32 31 31 31 31
10 11 13 12 12 11 12 11 13 13 12 13 13 15 15 14 14 13 13 13 10 10 11 10 14 18 19 15 20 24 28 29 30 30 31 32 31 33 33 34 33 32 31 31 31
10 9 8 10 12 12 12 12 11 12 13 14 13 13 13 14 14 15 15 15 15 14 14 11 13 18 17 16 17 24 27 29 30 30 30 30 30 32 32 32 32 33 32 31 31
Height
827 825 823 820 819 815 814 810 808 805 803 801 797 794 791 788 784 783 777 772 774 775 777 777 777 774 773 769 766 757 771 766 753 746 733 713 725 711 715 724 720 720 723 723 724
827 825 823 821 817 815 812 809 808 804 801 798 795 793 788 784 781 771 767 767 770 772 774 772 769 768 766 761 759 761 764 754 732 726 727 716 717 720 725 730 730 725 717 718 720
826 823 821 818 816 814 811 809 805 803 800 798 796 792 786 783 775 753 752 760 765 767 770 768 763 759 760 753 750 749 755 739 727 720 719 721 717 713 721 729 721 722 719 716 720
827 824 820 817 813 811 809 807 804 802 798 797 794 790 786 788 769 751 755 759 762 765 766 765 761 756 754 752 743 749 734 733 726 721 722 721 713 716 718 720 714 714 716 717 719
828 825 821 818 814 809 806 803 800 798 795 794 791 790 787 775 759 755 757 760 759 757 757 756 753 749 742 740 738 733 728 723 720 721 719 717 718 717 715 711 710 710 713 714 714
827 824 820 817 813 809 806 801 796 794 793 791 789 790 789 773 756 755 755 756 755 752 746 747 738 735 730 730 729 722 719 716 716 716 715 721 713 712 711 707 705 706 708 708 706
827 823 820 815 811 807 802 798 794 790 787 786 787 788 779 760 755 755 754 753 752 750 745 739 737 731 725 726 718 719 726 716 710 710 712 711 714 714 703 701 701 700 700 700 699
825 822 818 814 809 805 799 793 788 783 780 779 781 783 768 756 752 749 748 746 748 748 747 743 736 729 726 721 719 726 723 730 711 710 705 715 712 704 696 696 696 691 691 689 693
825 821 816 811 807 801 795 788 782 778 777 777 780 777 756 745 747 743 744 742 741 740 742 745 742 734 730 733 734 721 726 718 717 702 702 706 701 696 691 692 691 689 685 686 689
823 818 814 809 804 798 790 782 777 776 774 774 771 770 747 741 734 739 737 739 737 736 734 737 739 738 729 724 721 719 716 717 713 700 696 699 692 686 682 687 689 683 679 683 685
822 817 812 807 801 795 788 777 770 765 764 755 746 747 734 733 735 735 736 735 735 732 729 727 739 725 697 699 697 702 705 703 691 684 695 695 688 678 678 683 681 675 671 672 679
819 814 809 804 798 792 788 779 777 782 768 754 744 737 735 734 732 731 735 733 730 729 727 724 715 675 702 698 704 705 707 698 690 679 684 685 682 674 672 675 675 672 666 665 670
818 812 807 802 795 790 785 780 781 778 769 743 727 721 721 725 722 723 724 725 725 718 714 712 676 703 696 699 700 693 699 700 698 687 679 684 685 677 671 667 667 665 662 661 661
815 810 804 799 793 787 779 783 780 778 760 715 716 715 718 719 717 712 711 717 715 714 705 700 689 688 692 691 687 693 682 691 695 701 707 685 695 673 668 665 660 658 654 651 650
812 806 801 799 796 787 785 783 781 780 749 707 712 714 709 714 705 705 704 710 711 706 708 685 688 686 685 667 681 669 679 682 689 698 701 693 697 672 663 664 658 650 646 643 643
809 802 797 791 793 790 785 782 781 777 739 712 714 734 711 706 701 699 704 703 702 704 694 681 674 669 671 670 666 671 679 680 680 690 706 688 691 667 663 655 644 638 635 633 634
805 801 799 797 791 789 786 782 781 754 723 726 730 726 727 712 704 702 704 710 702 705 703 688 681 665 660 671 665 665 681 700 707 699 683 672 680 655 642 634 632 631 631 625 623
803 801 798 797 794 791 788 790 766 738 736 729 728 724 721 710 704 711 706 705 693 695 704 680 689 669 653 655 658 659 664 676 695 689 681 658 672 649 624 620 618 621 623 623 634
800 796 795 794 793 792 792 774 763 745 742 744 737 734 718 703 702 700 699 694 699 711 724 678 666 653 652 647 648 650 656 640 663 643 654 635 628 625 620 621 621 621 625 630 637
802 792 790 793 792 790 786 770 756 747 748 745 743 741 730 712 719 707 699 713 711 716 726 701 691 644 637 645 642 638 630 666 657 679 669 648 636 640 624 617 614 620 622 627 637
799 785 791 792 791 786 781 765 751 751 747 754 746 738 728 720 710 704 702 699 711 713 710 707 711 667 639 632 640 639 634 640 645 641 656 662 641 603 615 615 612 610 615 624 637
793 783 789 789 791 779 777 761 754 744 742 743 745 738 730 726 724 707 699 699 711 710 703 687 691 680 646 620 620 620 625 633 638 653 634 635 639 605 610 605 604 606 612 622 633
789 781 786 787 789 782 773 757 746 744 743 742 744 735 730 728 730 706 705 728 724 722 713 704 682 672 665 641 616 618 616 618 633 628 641 645 636 606 609 604 601 609 612 626 632
793 793 780 780 783 784 777 765 754 746 741 738 732 728 746 726 713 716 717 720 728 725 719 724 692 661 673 643 617 622 613 610 623 637 631 633 623 619 617 614 613 619 623 628 634
797 793 794 786 784 787 780 769 758 752 746 739 731 727 725 724 713 720 721 712 716 718 725 724 690 663 658 672 644 612 610 607 615 623 625 624 624 614 609 611 616 621 625 631 636
808 802 794 787 783 780 772 768 757 754 753 745 741 730 725 722 717 717 715 714 726 726 718 719 686 665 665 684 656 629 606 606 609 618 616 610 622 602 604 606 617 621 626 633 635
812 811 809 792 777 775 769 767 765 759 748 743 740 736 729 723 722 715 709 704 704 708 704 711 689 662 676 680 670 634 610 603 607 611 616 629 626 611 616 618 621 618 622 628 631
Wind_Speed
16 16 16 17 17 16 16 17 18 17 17 17 18 20 20 21 21 16 17 13 14 17 11 10 15 19 17 18 23 20 15 17 21 20 18 12 11 14 3 11 6 9 9 13 15
18 17 17 16 17 18 18 17 17 17 18 20 20 20 20 20 23 24 25 20 23 14 14 21 19 20 16 19 20 20 17 24 20 19 19 17 10 14 8 12 15 16 19 18 10
19 19 19 19 18 17 18 18 18 18 17 16 18 20 18 17 15 13 8 31 25 24 24 24 24 19 23 21 24 24 24 24 23 21 21 26 23 19 19 21 17 17 19 16 19
19 19 20 21 22 22 20 18 17 17 17 17 15 17 15 11 10 7 9 10 8 12 25 28 25 26 25 27 26 29 30 27 28 27 27 31 26 25 23 23 22 19 22 17 19
18 19 20 21 22 23 23 22 20 20 19 18 16 13 13 11 16 9 1 7 9 13 24 24 28 29 32 28 28 34 31 30 30 30 29 29 30 31 27 26 26 21 21 18 21
17 19 21 21 22 21 22 23 24 22 23 19 15 11 15 23 11 13 15 16 14 15 17 26 29 29 31 32 32 31 33 34 32 31 30 30 32 28 28 27 27 23 23 22 22
18 19 21 22 23 23 23 24 25 25 24 20 16 13 17 22 20 19 14 18 20 18 18 19 27 29 27 33 30 33 35 33 33 30 33 28 35 34 29 28 28 26 23 23 20
23 22 24 24 23 24 25 28 29 26 24 21 13 14 11 17 22 24 25 27 25 23 22 20 17 24 28 23 27 33 31 29 32 32 29 25 35 28 27 27 29 24 21 18 18
21 23 24 24 24 25 27 30 23 19 10 8 9 15 20 5 18 16 23 22 21 25 23 24 19 20 19 24 22 27 28 36 31 29 28 29 40 29 27 27 27 26 24 16 19
24 24 23 23 25 28 32 23 20 13 6 8 16 8 20 14 5 5 5 10 16 17 20 19 16 18 19 21 27 32 34 30 33 28 29 34 36 31 26 25 26 30 19 21 23
23 24 23 25 26 29 26 22 3 8 16 14 13 14 22 10 12 14 12 8 12 14 23 24 16 27 42 37 33 31 26 32 32 28 31 31 32 28 22 26 28 27 26 18 23
26 27 27 27 29 22 12 10 8 7 12 22 25 28 33 31 24 20 19 16 15 19 21 24 30 44 28 33 32 34 32 34 29 28 23 28 30 28 26 25 27 28 28 23 21
27 27 29 28 27 13 13 12 7 11 9 24 25 24 20 21 25 23 22 22 23 22 25 29 42 26 32 32 33 33 33 30 31 25 23 25 29 30 28 27 26 27 29 28 27
29 30 28 29 18 16 11 8 8 10 8 19 11 7 9 9 13 17 23 24 25 29 22 27 32 32 34 35 34 32 30 29 27 22 20 21 23 28 21 24 26 25 26 25 21
33 32 27 18 16 11 11 10 10 4 6 5 9 8 5 10 3 4 15 16 24 25 22 34 26 34 36 41 32 38 25 26 26 21 23 28 19 20 22 24 22 21 21 22 20
36 27 13 7 8 11 13 8 7 6 4 4 7 13 15 15 6 9 8 13 11 20 28 31 27 28 38 34 28 31 28 26 21 18 20 26 21 24 24 25 24 22 22 18 18
31 10 7 7 10 12 10 7 5 6 7 9 12 13 14 22 13 11 10 13 14 16 20 31 31 29 29 28 36 28 26 17 19 17 23 18 20 23 23 22 19 18 19 18 16
17 4 4 9 10 10 9 3 8 10 11 17 18 20 19 20 16 7 11 16 17 15 18 22 25 34 27 29 33 34 28 17 33 15 19 24 24 17 14 9 9 15 12 10 10
9 7 3 10 7 4 3 6 6 12 14 15 20 16 17 19 17 14 17 16 5 6 7 14 27 29 34 26 25 39 27 34 24 24 17 15 18 20 18 16 12 11 14 14 12
14 8 6 7 5 4 3 7 10 13 14 16 19 10 15 19 6 16 6 1 2 5 3 13 10 27 30 32 32 31 29 23 20 27 22 14 11 9 7 6 16 14 19 16 14
11 3 6 6 6 4 4 8 15 14 14 10 19 20 17 15 18 15 13 6 4 6 8 16 5 14 29 32 32 24 25 29 22 18 16 13 12 6 6 8 10 15 19 19 17
8 4 6 7 3 4 5 16 16 15 14 15 10 15 15 16 14 15 18 8 6 9 14 15 8 16 15 26 30 31 30 31 18 27 18 11 6 4 7 11 12 18 19 18 18
6 3 6 1 5 7 14 18 9 13 15 10 10 15 17 18 7 8 2 7 3 8 4 7 11 16 4 17 31 30 33 27 27 18 20 14 6 7 4 4 10 9 16 17 18
4 5 2 1 4 9 13 14 16 13 12 12 17 11 6 15 11 7 10 2 3 14 9 7 11 20 9 8 19 29 32 29 29 15 18 20 6 10 13 11 11 11 13 17 18
4 3 4 5 8 10 14 15 15 14 13 19 13 14 16 16 17 5 7 14 3 5 4 3 12 23 16 16 26 28 27 27 29 24 16 21 14 13 15 12 12 13 14 16 18
3 5 8 12 8 10 11 11 15 18 16 14 15 19 18 17 16 16 14 12 2 4 5 6 10 16 19 15 24 18 30 26 23 26 18 14 15 7 13 12 9 11 14 16 17
2 7 3 10 10 6 9 12 18 17 11 13 17 19 18 17 18 20 20 18 13 15 11 5 7 10 15 16 24 16 21 22 24 25 20 12 4 4 7 3 3 3 13 17 17
Wind_Direction
360 358 354 350 345 343 339 339 339 338 338 336 334 330 327 321 316 292 254 242 214 237 218 219 222 213 220 232 232 241 258 252 252 253 263 250 226 256 356 301 287 273 279 286 298
352 351 351 347 345 339 338 337 334 334 334 332 335 331 327 330 311 278 255 236 229 224 211 227 216 211 220 227 232 230 239 244 255 274 280 288 258 261 207 236 265 265 271 258 252
348 346 345 342 339 336 335 331 330 326 325 324 323 326 331 336 291 263 243 222 214 226 233 238 238 219 229 232 229 232 239 257 267 267 276 278 271 280 282 279 270 283 292 307 303
347 344 341 338 336 334 331 328 323 320 318 318 316 322 331 318 257 78 136 143 192 232 232 234 240 238 231 236 237 245 241 250 263 273 280 273 276 275 265 275 281 286 283 292 284
346 340 338 336 331 328 327 323 317 313 312 309 313 315 324 239 244 287 183 274 281 237 224 221 224 229 233 233 241 243 246 252 260 269 264 272 271 276 272 277 280 287 283 281 272
338 337 337 333 329 324 321 315 316 313 307 303 301 297 266 265 270 268 270 266 257 260 230 229 231 232 242 241 243 249 257 261 261 261 264 265 265 262 259 263 270 271 270 269 268
339 337 334 331 327 324 319 315 312 306 299 294 286 272 269 258 276 279 263 259 256 258 260 243 243 244 241 248 249 256 260 262 258 256 254 258 265 262 265 266 269 271 271 260 265
343 339 334 329 325 319 315 316 310 300 291 288 268 244 260 265 268 262 257 252 250 246 248 267 263 251 246 260 251 251 253 257 250 253 251 247 263 264 269 266 259 258 264 268 264
336 330 328 327 324 320 319 317 309 303 279 259 210 217 264 247 235 258 251 256 254 241 238 242 255 252 233 240 252 237 242 240 251 248 250 244 257 258 265 268 269 267 268 272 267
340 337 335 331 325 323 320 311 295 284 246 219 243 229 242 259 256 262 237 230 245 243 225 221 229 236 233 219 228 229 237 243 255 251 245 246 255 261 256 268 271 274 251 251 274
339 337 334 332 326 324 323 312 246 217 221 261 293 223 296 237 270 250 258 240 249 232 224 205 212 220 221 219 234 242 248 247 250 248 240 256 268 273 253 261 268 265 262 263 269
340 338 334 332 330 323 295 326 350 321 292 279 270 263 260 269 274 260 257 246 231 231 221 217 218 222 224 231 231 243 250 250 262 262 256 258 260 261 263 266 270 273 275 264 264
339 335 332 327 325 297 315 312 311 311 274 277 263 256 249 236 247 244 240 233 241 229 229 220 228 228 230 232 235 233 235 243 252 263 265 267 269 263 265 269 269 267 272 276 268
341 334 327 325 305 323 300 341 299 326 283 268 196 199 177 226 252 231 238 228 237 236 239 235 237 236 226 233 229 236 229 242 254 260 258 248 265 255 260 260 257 264 264 264 262
337 330 319 313 302 306 339 313 325 301 280 102 120 122 189 228 346 124 212 235 235 237 230 241 228 230 239 227 230 242 236 238 240 247 262 256 259 270 271 267 270 269 260 258 260
339 329 335 339 248 308 306 305 273 240 263 11 59 345 258 230 241 175 229 207 257 241 253 248 246 240 230 242 230 237 239 242 241 240 245 247 253 264 266 270 268 258 255 259 248
345 349 359 329 329 323 309 273 257 260 344 38 352 318 326 292 249 245 259 277 241 216 236 244 247 247 241 223 235 222 224 226 229 227 242 242 243 263 275 278 275 259 252 261 216
345 331 312 344 321 310 298 294 257 357 12 347 337 316 280 282 274 303 262 257 253 257 281 234 227 234 231 229 216 222 213 215 215 218 236 226 243 257 262 272 260 240 219 151 150
340 255 293 359 344 316 312 264 343 2 342 329 316 307 285 251 268 227 260 260 351 359 293 278 235 228 229 227 237 210 215 217 240 231 245 255 219 233 251 260 243 228 213 142 164
323 291 43 355 337 274 276 310 327 352 340 317 307 297 320 312 247 253 278 294 258 263 324 287 286 227 229 216 237 237 210 208 222 240 247 232 231 223 191 254 197 209 186 163 158
285 283 64 344 307 277 311 317 326 335 317 328 313 306 305 299 295 288 280 154 196 289 231 275 268 271 223 212 213 214 217 210 220 230 234 244 241 196 270 261 184 185 171 159 164
284 318 49 321 318 307 298 322 296 304 310 323 314 308 303 314 301 276 261 8 188 295 293 253 281 267 279 220 215 214 215 200 222 217 234 272 212 77 196 229 168 162 163 151 166
307 294 133 307 340 329 315 313 320 326 320 320 293 300 316 309 291 283 35 2 350 293 303 358 243 250 279 253 199 224 205 209 216 229 208 235 140 141 172 158 167 112 134 155 163
312 325 341 304 342 313 326 311 326 321 311 308 303 313 255 302 311 293 339 155 259 259 295 313 267 258 248 232 206 214 206 204 203 213 196 224 148 165 170 144 114 134 146 157 162
342 284 340 306 322 321 298 283 297 323 330 313 305 307 317 323 312 347 321 313 322 275 262 241 262 241 254 301 305 208 215 203 196 210 216 194 211 167 140 115 116 137 155 158 164
4 338 332 297 284 305 307 300 324 328 326 310 315 314 320 305 316 318 322 311 232 265 248 247 270 276 226 262 284 260 208 211 204 201 226 178 205 181 124 132 142 148 170 172 172
6 287 288 280 269 284 303 319 305 313 310 310 311 311 305 310 312 302 291 285 266 263 279 268 286 253 221 234 271 234 202 211 197 194 215 212 168 222 246 211 185 165 185 183 179